Header
Bookmark and Share

Champaign County, Illinois Weather Analysis


Narrow Your Investigation To Make Informed Decisions?

All | Demographics | Education | Geography | Economic | Housing | Government | Taxes | Weather | Crime

Weather Analysis

The enjoyment of the area in which you live is often affected by the weather. Each individual has a different view on what weather patterns will make them most happy. Some people love the seasons, others enjoy warm temperatures throughout the year while others may love the snow. The weather provided for Champaign County, Illinois is based on over 50 years of data.

Tornado Information For Champaign County, Illinois


On 04/02/2006, a tornado touched down 2.11 miles from the center of Champaign County, Illinois. The tornado was rated a category 0 . There were 0 injuries and 0 fatalities.

On 05/09/1990, a tornado touched down 2.69 miles from the center of Champaign County, Illinois. The tornado was rated a category 1 . There were 0 injuries and 0 fatalities. Damages ranged from $5,000 to $50,000.

On 06/08/1993, a tornado touched down 2.89 miles from the center of Champaign County, Illinois. The tornado was rated a category 0 . There were 0 injuries and 0 fatalities.

On 04/09/1953, a tornado touched down 2.99 miles from the center of Champaign County, Illinois. The tornado was rated a category 3 . There were 22 injuries and 3 fatalities. Damages ranged from $5,000,000 to $50,000,000.

On 04/09/1953, a tornado touched down 2.99 miles from the center of Champaign County, Illinois. The tornado was rated a category 3 . There were 10 injuries and 1 fatalities. Damages ranged from $5,000,000 to $50,000,000.



Storms In Champaign County, Illinois

  Fatalities Injuries Property
Damage
Crop
Damage
Flooding        
05/10/1996, 11:15 am 0 0 $200K --
01/01/1906, 12:00 am 0 0 $80K --
         
Lightning        
07/14/1997, 01:00 pm 0 1 $4K --
         
Thunderstorm Wind        
10/18/2007, 12:00 am 0 0 $2K --
07/18/2007, 03:00 am 0 0 $2K --
05/26/2007, 12:00 am 0 0 $7K --
04/02/2006, 06:57 pm 0 0 $10K --
03/13/2006, 04:10 am 0 0 $10K --
03/13/2006, 03:25 am 0 0 $126K --
03/12/2006, 11:05 pm 0 0 $5K --
03/12/2006, 11:00 pm 0 0 $3K --
03/12/2006, 10:50 pm 0 0 $3K --
07/13/2004, 02:57 pm 0 1 $800K --
07/13/2004, 02:12 pm 0 0 $100K --
07/13/2004, 02:07 pm 0 0 $2M --
07/23/2001, 05:24 pm 0 0 $15K --
04/06/2001, 12:15 pm 0 0 $45K --
08/26/2000, 07:51 pm 0 0 $5K --
06/01/1999, 07:05 pm 0 0 $35K --
06/29/1998, 04:42 pm 0 2 $500K --
06/29/1998, 04:31 pm 0 0 $300K --
06/12/1998, 03:38 pm 0 1 -- --
08/24/1997, 01:38 pm 0 0 $700K --
06/29/1987, 03:04 pm 0 5 -- --
         



Tornados In Champaign County, Illinois

    Length Width F-Scale Fatalities Injuries Property
Damage
Crop
Damage

Tornado

  2006-07-26 -- 30 -- 0 0 -- --
  2006-07-26 -- 30 -- 0 0 -- --
  2006-07-26 -- 20 -- 0 0 -- --
  2006-07-26 -- 20 -- 0 0 -- --
  2006-07-26 -- 30 -- 0 0 -- --
  2006-05-31 1 50 -- 0 0 -- --
  2006-04-02 -- 50 -- 0 0 -- --
  2006-04-02 -- 30 -- 0 0 -- --
  2006-04-02 1 50 1 0 0 -- --
  2006-04-02 -- 30 -- 0 0 -- --
  2006-03-12 2 30 -- 0 0 -- --
  2004-11-01 2 100 -- 0 0 -- --
  2004-04-20 -- 50 -- 0 0 -- --
  2003-07-09 -- 10 -- 0 0 -- --
  2003-06-13 -- 10 -- 0 0 -- --
  2003-06-11 -- 10 -- 0 0 -- --
  2003-06-11 -- 10 -- 0 0 -- --
  2003-05-28 2 75 -- 0 0 -- --
  2003-05-14 -- 10 -- 0 0 -- --
  2003-05-14 -- 10 -- 0 0 -- --
  2003-05-14 -- 10 -- 0 0 -- --
  2003-05-14 1 50 -- 0 0 $2K --
  2001-10-24 1 100 1 0 2 $500K --
  2001-10-24 2 300 2 0 0 $2M --
  2000-06-20 1 50 -- 0 0 $20K --
  2000-06-20 2 50 -- 0 0 -- --
  2000-05-18 -- 10 -- 0 0 -- --
  2000-05-18 1 50 -- 0 0 -- --
  2000-05-18 1 50 -- 0 0 -- --
  2000-05-18 1 50 -- 0 0 -- --
  2000-04-20 4 30 -- 0 0 -- --
  1999-06-04 -- 20 -- 0 0 -- --
  1999-06-04 -- 30 -- 0 0 -- --
  1999-06-04 -- 20 -- 0 0 -- --
  1999-06-04 -- 20 -- 0 0 -- --
  1999-06-04 4 20 -- 0 0 -- --
  1999-06-04 -- 20 -- 0 0 -- --
  1999-06-04 -- 20 -- 0 0 -- --
  1999-06-04 -- 20 -- 0 0 -- --
  1999-06-01 -- 10 -- 0 0 -- --
  1999-04-08 4 100 1 1 3 $150K --
  1998-04-29 3 35 -- 0 0 $35K --
  1997-04-30 -- 50 -- 0 0 -- --
  1996-05-28 -- 40 -- 0 0 -- --
  1993-08-16 -- 10 -- 0 0 -- --
  1992-06-17 -- 10 -- 0 1 -- --
  1992-05-04 -- 10 -- 0 0 -- --
  1992-05-04 -- 30 -- 0 0 -- --
  1991-05-16 -- 50 -- 0 0 -- --
  1991-04-29 -- 50 -- 0 0 -- --
  1990-05-09 1 50 1 0 0 $25K --
  1987-06-02 -- 10 2 0 0 $25K --
  1987-04-11 4 23 1 0 0 $250K --
  1987-04-11 1 10 -- 0 0 -- --
  1986-06-30 4 123 -- 0 0 -- --
  1986-05-16 1 10 1 0 0 $3K --
  1984-04-12 -- 10 1 0 1 $250K --
  1982-08-24 6 300 2 0 0 $3M --
  1982-08-04 7 100 -- 0 0 $250K --
  1982-05-26 -- 33 -- 0 0 -- --
  1982-04-02 6 500 1 0 0 $250K --
  1981-06-08 -- 33 1 0 0 $25K --
  1981-06-08 -- 33 1 0 0 $25K --
  1981-06-08 -- 33 1 0 0 $25K --
  1981-04-13 -- 33 2 0 0 $3M --
  1980-06-07 3 33 2 0 0 $3M --
  1980-04-08 1 60 -- 0 0 -- --
  1976-06-29 -- 33 2 0 0 $25K --
  1976-05-15 -- 3 -- 0 0 -- --
  1976-04-23 -- 67 2 0 0 $25K --
  1975-04-30 -- 33 -- 0 0 -- --
  1974-06-20 -- 33 -- 0 0 -- --
  1974-06-20 -- 33 -- 0 0 -- --
  1974-04-12 13 20 2 0 0 $250K --
  1974-04-03 11 20 1 0 0 $3K --
  1974-04-03 7 350 3 0 0 $250K --
  1973-06-12 5 33 1 0 0 $25K --
  1973-06-04 -- 33 1 0 0 -- --
  1973-06-02 -- 33 1 0 0 -- --
  1973-03-31 -- 33 -- 0 0 -- --
  1971-12-10 -- 30 1 0 0 $250K --
  1970-06-16 2 33 1 0 0 $25K --
  1970-06-16 3 200 -- 0 0 -- --
  1970-04-30 -- 33 -- 0 0 $250K --
  1967-04-21 -- 33 1 0 0 $3K --
  1967-01-24 10 50 2 0 5 $25K --
  1965-11-26 -- 10 1 0 0 $250K --
  1965-09-14 7 77 2 0 2 $250K --
  1965-09-14 5 77 2 0 0 $250K --
  1961-03-04 6 50 -- 0 0 $25K --
  1961-03-04 42 33 1 0 0 $250K --
  1961-03-04 9 33 1 0 1 $250K --
  1960-06-04 10 20 2 0 1 $250K --
  1960-06-04 10 33 2 0 0 $25K --
  1959-05-11 -- 30 2 0 0 $250K --
  1958-06-23 -- 40 -- 0 0 -- --
  1958-06-08 1 33 1 0 0 $25K --
  1958-04-05 5 80 1 0 0 $3K --
  1957-04-26 22 30 1 0 0 $25K --
  1956-04-02 10 40 2 0 0 $25K --
  1956-03-05 9 500 3 0 6 $250K --
  1956-03-05 2 200 2 0 0 $25K --
  1955-08-29 -- 33 -- 0 0 -- --
  1953-04-09 18 150 3 0 5 $25M --
  1950-03-27 3 50 2 0 0 $3K --
  1920-01-01 -- 33 -- 0 0 -- --
  1919-01-01 -- 33 -- 0 0 -- --
  1918-01-01 -- 20 -- 0 0 -- --
  1916-01-01 3 40 1 0 0 $250K --
  1915-01-01 2 40 1 0 0 $250K --
  1915-01-01 -- 20 1 0 0 $25K --
  1907-01-01 4 220 3 0 12 $9M --



Hurricanes And Storms In Champaign County, Illinois

  • Tropical Depression: (Name Unknown) - Wind Speed: 25 Knots



Back to Top

Do you want to research champaign county, illinois? If you are considering a move, want to view where your friends live,
or just discovering a new place to travel, our data will interest you!

Use any data on this web site at your own risk. citymelt.com does not warrant or certify the correctness of data.